Zurück zum Katalog

STARLINK-11585

AktivKommunikationVLEO
NORAD 63309·PAYLOAD·🇺🇸 United States

Gestartet Mar 18, 2025 von Cape Canaveral Space Force Station

Loading…

Nächste Überflüge (nächste 24 Stunden)

TLE

AktuellSource: CelesTrak SupGP

Epoche: Sep 14, 2026, 21:26 UTC

1 63309C 25057C   26257.89354167  .00054787  00000+0  42561-3 0  2573
2 63309  43.0004 203.8902 0001647 262.8892 200.4755 15.70806938    14

Verfolge STARLINK-11585 in Echtzeit mit AllMySat

Download on the App Store